Time,TemperatureF,DewpointF,PressureIn,WindDirection,WindDirectionDegrees,WindSpeedMPH,WindSpeedGustMPH,Humidity,HourlyPrecipIn,Conditions,Clouds,dailyrainin,SoftwareType,DateUTC
2013-01-21 00:24:00,51.0,-99.9,-100.00,NNW,343,2.0,-999.0,113,0.00,,,-99.99,,2013-01-21 06:24:00,
2013-01-21 00:33:00,51.0,-99.9,-100.00,NNW,343,2.0,-999.0,113,0.00,,,-99.99,,2013-01-21 06:33:00,
2013-01-21 00:43:00,51.0,-99.9,-100.00,NNW,343,2.0,-999.0,113,0.00,,,-99.99,,2013-01-21 06:43:00,
2013-01-21 01:23:00,47.0,-99.9,-100.00,NE,39,3.0,-999.0,115,0.00,,,-99.99,,2013-01-21 07:23:00,
2013-01-21 01:33:00,47.0,-99.9,-100.00,NE,39,3.0,-999.0,115,0.00,,,-99.99,,2013-01-21 07:33:00,
2013-01-21 01:43:00,47.0,-99.9,-100.00,NE,39,3.0,-999.0,115,0.00,,,-99.99,,2013-01-21 07:43:00,
2013-01-21 02:23:00,46.0,-99.9,-100.00,North,8,2.0,-999.0,117,0.00,,,-99.99,,2013-01-21 08:23:00,
2013-01-21 02:33:00,46.0,-99.9,-100.00,North,8,2.0,-999.0,117,0.00,,,-99.99,,2013-01-21 08:33:00,
2013-01-21 02:43:00,46.0,-99.9,-100.00,North,8,2.0,-999.0,117,0.00,,,-99.99,,2013-01-21 08:43:00,
2013-01-21 03:23:00,46.0,-99.9,-100.00,North,354,2.0,-999.0,117,0.00,,,-99.99,,2013-01-21 09:23:00,
2013-01-21 03:33:00,46.0,-99.9,-100.00,North,354,2.0,-999.0,117,0.00,,,-99.99,,2013-01-21 09:33:00,
2013-01-21 03:43:00,46.0,-99.9,-100.00,North,354,2.0,-999.0,117,0.00,,,-99.99,,2013-01-21 09:43:00,
2013-01-21 04:23:00,45.0,-99.9,-100.00,WNW,302,3.0,-999.0,117,0.00,,,-99.99,,2013-01-21 10:23:00,
2013-01-21 04:33:00,45.0,-99.9,-100.00,WNW,302,3.0,-999.0,117,0.00,,,-99.99,,2013-01-21 10:33:00,
2013-01-21 04:43:00,45.0,-99.9,-100.00,WNW,302,3.0,-999.0,117,0.00,,,-99.99,,2013-01-21 10:43:00,
2013-01-21 05:23:00,46.0,-99.9,-100.00,NNE,15,2.0,-999.0,117,0.00,,,-99.99,,2013-01-21 11:23:00,
2013-01-21 05:33:00,46.0,-99.9,-100.00,NNE,15,2.0,-999.0,117,0.00,,,-99.99,,2013-01-21 11:33:00,
2013-01-21 05:43:00,46.0,-99.9,-100.00,NNE,15,2.0,-999.0,117,0.00,,,-99.99,,2013-01-21 11:43:00,
2013-01-21 06:23:00,45.0,-99.9,-100.00,NNW,339,4.0,-999.0,117,0.00,,,-99.99,,2013-01-21 12:23:00,
2013-01-21 06:33:00,45.0,-99.9,-100.00,NNW,339,4.0,-999.0,117,0.00,,,-99.99,,2013-01-21 12:33:00,
2013-01-21 06:43:00,45.0,-99.9,-100.00,NNW,339,4.0,-999.0,117,0.00,,,-99.99,,2013-01-21 12:43:00,
2013-01-21 07:23:00,44.0,-99.9,-100.00,North,4,6.0,-999.0,117,0.00,,,-99.99,,2013-01-21 13:23:00,
2013-01-21 07:33:00,44.0,-99.9,-100.00,North,4,6.0,-999.0,117,0.00,,,-99.99,,2013-01-21 13:33:00,
2013-01-21 07:43:00,44.0,-99.9,-100.00,North,4,6.0,-999.0,117,0.00,,,-99.99,,2013-01-21 13:43:00,
2013-01-21 08:23:00,44.0,-99.9,-100.00,North,356,7.0,-999.0,116,0.00,,,-99.99,,2013-01-21 14:23:00,
2013-01-21 08:33:00,44.0,-99.9,-100.00,North,356,7.0,-999.0,116,0.00,,,-99.99,,2013-01-21 14:33:00,
2013-01-21 08:43:00,44.0,-99.9,-100.00,North,356,7.0,-999.0,116,0.00,,,-99.99,,2013-01-21 14:43:00,
2013-01-21 09:23:00,49.0,-99.9,-100.00,North,358,9.0,-999.0,92,0.00,,,-99.99,,2013-01-21 15:23:00,
2013-01-21 09:33:00,49.0,-99.9,-100.00,North,358,9.0,-999.0,92,0.00,,,-99.99,,2013-01-21 15:33:00,
2013-01-21 09:43:00,49.0,-99.9,-100.00,North,358,9.0,-999.0,92,0.00,,,-99.99,,2013-01-21 15:43:00,
2013-01-21 10:24:00,55.0,-99.9,-100.00,NNW,348,8.0,-999.0,73,0.00,,,-99.99,,2013-01-21 16:24:00,
2013-01-21 10:34:00,55.0,-99.9,-100.00,NNW,348,8.0,-999.0,73,0.00,,,-99.99,,2013-01-21 16:34:00,
2013-01-21 10:44:00,55.0,-99.9,-100.00,NNW,348,8.0,-999.0,73,0.00,,,-99.99,,2013-01-21 16:44:00,
2013-01-21 11:23:00,59.0,-99.9,-100.00,North,7,7.0,-999.0,56,0.00,,,-99.99,,2013-01-21 17:23:00,
2013-01-21 11:34:00,59.0,-99.9,-100.00,North,7,7.0,-999.0,56,0.00,,,-99.99,,2013-01-21 17:34:00,
2013-01-21 11:43:00,59.0,-99.9,-100.00,North,7,7.0,-999.0,56,0.00,,,-99.99,,2013-01-21 17:43:00,
2013-01-21 12:23:00,62.0,-99.9,-100.00,NNE,12,9.0,-999.0,48,0.00,,,-99.99,,2013-01-21 18:23:00,
2013-01-21 12:33:00,62.0,-99.9,-100.00,NNE,12,9.0,-999.0,48,0.00,,,-99.99,,2013-01-21 18:33:00,
2013-01-21 12:43:00,62.0,-99.9,-100.00,NNE,12,9.0,-999.0,48,0.00,,,-99.99,,2013-01-21 18:43:00,
2013-01-21 13:23:00,62.0,-99.9,-100.00,NNW,344,9.0,-999.0,49,0.00,,,-99.99,,2013-01-21 19:23:00,
2013-01-21 13:33:00,62.0,-99.9,-100.00,NNW,344,9.0,-999.0,49,0.00,,,-99.99,,2013-01-21 19:33:00,
2013-01-21 13:43:00,62.0,-99.9,-100.00,NNW,344,9.0,-999.0,49,0.00,,,-99.99,,2013-01-21 19:43:00,
2013-01-21 14:23:00,64.0,-99.9,-100.00,NNW,339,6.0,-999.0,44,0.00,,,-99.99,,2013-01-21 20:23:00,
2013-01-21 14:33:00,64.0,-99.9,-100.00,NNW,339,6.0,-999.0,44,0.00,,,-99.99,,2013-01-21 20:33:00,
2013-01-21 14:43:00,64.0,-99.9,-100.00,NNW,339,6.0,-999.0,44,0.00,,,-99.99,,2013-01-21 20:43:00,
2013-01-21 15:23:00,61.0,-99.9,-100.00,South,191,5.0,-999.0,64,0.00,,,-99.99,,2013-01-21 21:23:00,
2013-01-21 15:33:00,61.0,-99.9,-100.00,South,191,5.0,-999.0,64,0.00,,,-99.99,,2013-01-21 21:33:00,
2013-01-21 15:43:00,61.0,-99.9,-100.00,South,191,5.0,-999.0,64,0.00,,,-99.99,,2013-01-21 21:43:00,
2013-01-21 16:24:00,63.0,-99.9,-100.00,NNE,13,5.0,-999.0,55,0.00,,,-99.99,,2013-01-21 22:24:00,
2013-01-21 16:33:00,63.0,-99.9,-100.00,NNE,13,5.0,-999.0,55,0.00,,,-99.99,,2013-01-21 22:33:00,
2013-01-21 16:43:00,63.0,-99.9,-100.00,NNE,13,5.0,-999.0,55,0.00,,,-99.99,,2013-01-21 22:43:00,
2013-01-21 17:23:00,60.0,-99.9,-100.00,South,176,2.0,-999.0,73,0.00,,,-99.99,,2013-01-21 23:23:00,
2013-01-21 17:33:00,60.0,-99.9,-100.00,South,176,2.0,-999.0,73,0.00,,,-99.99,,2013-01-21 23:33:00,
2013-01-21 17:43:00,60.0,-99.9,-100.00,South,176,2.0,-999.0,73,0.00,,,-99.99,,2013-01-21 23:43:00,
2013-01-21 18:23:00,58.0,-99.9,-100.00,ESE,116,4.0,-999.0,84,0.00,,,-99.99,,2013-01-22 00:23:00,
2013-01-21 18:33:00,58.0,-99.9,-100.00,ESE,116,4.0,-999.0,84,0.00,,,-99.99,,2013-01-22 00:33:00,
2013-01-21 18:43:00,58.0,-99.9,-100.00,ESE,116,4.0,-999.0,84,0.00,,,-99.99,,2013-01-22 00:43:00,
2013-01-21 19:23:00,57.0,-99.9,-100.00,NNE,18,1.0,-999.0,90,0.00,,,-99.99,,2013-01-22 01:23:00,
2013-01-21 19:33:00,57.0,-99.9,-100.00,NNE,18,1.0,-999.0,90,0.00,,,-99.99,,2013-01-22 01:33:00,
2013-01-21 19:43:00,57.0,-99.9,-100.00,NNE,18,1.0,-999.0,90,0.00,,,-99.99,,2013-01-22 01:43:00,
2013-01-21 20:23:00,53.0,-99.9,-100.00,North,7,3.0,-999.0,93,0.00,,,-99.99,,2013-01-22 02:23:00,
2013-01-21 20:33:00,53.0,-99.9,-100.00,North,7,3.0,-999.0,93,0.00,,,-99.99,,2013-01-22 02:33:00,
2013-01-21 20:43:00,53.0,-99.9,-100.00,North,7,3.0,-999.0,93,0.00,,,-99.99,,2013-01-22 02:43:00,
2013-01-21 21:23:00,53.0,-99.9,-100.00,North,7,3.0,-999.0,80,0.00,,,-99.99,,2013-01-22 03:23:00,
2013-01-21 21:33:00,53.0,-99.9,-100.00,North,7,3.0,-999.0,80,0.00,,,-99.99,,2013-01-22 03:33:00,
2013-01-21 21:43:00,53.0,-99.9,-100.00,North,7,3.0,-999.0,80,0.00,,,-99.99,,2013-01-22 03:43:00,
2013-01-21 22:22:00,52.0,-99.9,-100.00,NNE,19,5.0,-999.0,79,0.00,,,-99.99,,2013-01-22 04:22:00,
2013-01-21 22:33:00,52.0,-99.9,-100.00,NNE,19,5.0,-999.0,79,0.00,,,-99.99,,2013-01-22 04:33:00,
2013-01-21 22:43:00,52.0,-99.9,-100.00,NNE,19,5.0,-999.0,79,0.00,,,-99.99,,2013-01-22 04:43:00,
2013-01-21 23:23:00,51.0,-99.9,-100.00,NNE,20,3.0,-999.0,81,0.00,,,-99.99,,2013-01-22 05:23:00,
2013-01-21 23:33:00,51.0,-99.9,-100.00,NNE,20,3.0,-999.0,81,0.00,,,-99.99,,2013-01-22 05:33:00,
2013-01-21 23:43:00,51.0,-99.9,-100.00,NNE,20,3.0,-999.0,81,0.00,,,-99.99,,2013-01-22 05:43:00,